This demonstration page uses our WeatherBlox Daily Observations layout. Learn more.

Left ArrowRight Arrow

39.92423, -83.80882

Hourly Observations for January 15, 2015

Temp ( °F °C ) Dew Point ( °F °C ) Humidity (%) Winds ( mph kmh ) Pressure ( in mb ) Visibility ( mi km ) Precip ( " mm )
12:56 am 00:56 Cloudy 17 -8.3 14 -10 88 88 S 3 6 30.29 1026 7 11 0.00 0.00
1:56 am 01:56 Cloudy 19 -7.2 15 -9.4 84 84 S 3 6 30.28 1025 8 13 0.00 0.00
2:56 am 02:56 Cloudy 19 -7.2 15 -9.4 84 84 S 3 6 30.27 1025 8 13 0.00 0.00
3:56 am 03:56 Cloudy 19 -7.2 16 -8.8 88 88 Calm 30.25 1024 7 11 0.00 0.00
4:56 am 04:56 Cloudy 20 -6.6 16 -8.8 85 85 S 5 7 30.22 1023 8 13 0.00 0.00
5:56 am 05:56 Mostly Cloudy 19 -7.2 16 -8.8 88 88 S 3 6 30.22 1023 7 11 0.00 0.00
6:56 am 06:56 Mostly Cloudy 20 -6.6 16 -8.8 85 85 S 3 6 30.22 1023 7 11 0.00 0.00
7:56 am 07:56 Partly Cloudy with Mist and Fog 16 -8.8 14 -10 91 91 S 3 6 30.22 1023 5 8 0.00 0.00
8:56 am 08:56 Sunny with Mist and Fog 20 -6.6 17 -8.3 88 88 S 5 7 30.22 1023 5 8 0.00 0.00
9:56 am 09:56 Hazy 24 -4.4 19 -7.2 81 81 SW 9 15 30.21 1023 6 10 0.00 0.00
10:56 am 10:56 Hazy 27 -2.7 19 -7.2 71 71 WSW 10 17 30.21 1023 6 10 0.00 0.00
11:56 am 11:56 Sunny 29 -1.6 16 -8.8 58 58 WSW 12 19 30.18 1022 7 11 0.00 0.00
12:56 pm 12:56 Sunny 31 -0.5 16 -8.8 54 54 W 14 22 30.15 1021 8 13 0.00 0.00
1:56 pm 13:56 Sunny 33 0.5 15 -9.4 48 48 WSW 12 19 30.13 1020 8 13 0.00 0.00
2:56 pm 14:56 Sunny 34 1.1 16 -8.8 48 48 WSW 13 20 30.11 1020 9 14 0.00 0.00
3:56 pm 15:56 Sunny 34 1.1 18 -7.7 52 52 WSW 13 20 30.11 1020 8 13 0.00 0.00
4:56 pm 16:56 Sunny 33 0.5 19 -7.2 57 57 SW 9 15 30.10 1019 8 13 0.00 0.00
5:56 pm 17:56 Clear 29 -1.6 19 -7.2 66 66 SSW 6 9 30.12 1020 9 14 0.00 0.00
6:56 pm 18:56 Clear 28 -2.2 17 -8.3 63 63 S 5 7 30.12 1020 9 14 0.00 0.00
7:56 pm 19:56 Clear 27 -2.7 17 -8.3 66 66 SSW 7 11 30.11 1020 9 14 0.00 0.00
8:56 pm 20:56 Clear 28 -2.2 19 -7.2 69 69 SW 9 15 30.11 1020 9 14 0.00 0.00
9:56 pm 21:56 Clear 27 -2.7 19 -7.2 71 71 SW 9 15 30.10 1019 9 14 0.00 0.00
10:56 pm 22:56 Clear 28 -2.2 19 -7.2 69 69 SW 13 20 30.10 1019 9 14 0.00 0.00
11:56 pm 23:56 Clear 29 -1.6 21 -6.1 72 72 SW 16 26 30.09 1019 9 14 0.00 0.00

Powered by AerisWeather